This is the latest recevied weather packets stored in our database for station/object WB5LJZ-5. If no packets are shown the sender has not sent any weather packets the latest 10 day(s).
| Time | Temp. | Humidity | Pressure | Rain* | Wind** | Luminosity | Snow |
|---|---|---|---|---|---|---|---|
| 1777620203 | 17.22° C | - | - | 0.76 mm | 4.92 m/s, 329° | - | - |
| 1777619568 | 17.22° C | - | - | 0.76 mm | 3.58 m/s, 298° | - | - |
| 1777618932 | 17.78° C | - | - | 0.76 mm | 5.36 m/s, 6° | - | - |
| 1777618296 | 17.78° C | - | - | 0.76 mm | 6.26 m/s, 20° | - | - |
| 1777617660 | 17.78° C | - | - | 2.29 mm | 5.36 m/s, 59° | - | - |
| 1777617025 | 17.78° C | - | - | 2.29 mm | 4.47 m/s, 53° | - | - |
| 1777616389 | 17.78° C | - | - | 2.29 mm | 6.26 m/s, 65° | - | - |
| 1777615753 | 18.33° C | - | - | 2.29 mm | 6.71 m/s, 20° | - | - |
| 1777615117 | 18.33° C | - | - | 2.29 mm | 4.47 m/s, 44° | - | - |
| 1777614482 | 18.33° C | - | - | 2.29 mm | 5.81 m/s, 44° | - | - |
| 1777613846 | 18.33° C | - | - | 0.51 mm | 4.47 m/s, 20° | - | - |
| 1777613210 | 18.33° C | - | - | 0.51 mm | 2.68 m/s, 23° | - | - |
| 1777612574 | 18.89° C | - | - | 0.51 mm | 3.13 m/s, 86° | - | - |
| 1777611938 | 18.89° C | - | - | 0.51 mm | 4.92 m/s, 69° | - | - |
| 1777611303 | 18.89° C | - | - | 0.51 mm | 4.47 m/s, 25° | - | - |
| 1777610668 | 18.89° C | - | - | 0.51 mm | 1.79 m/s, 31° | - | - |
| 1777610031 | 19.44° C | - | - | 1.52 mm | 3.13 m/s, 63° | - | - |
| 1777609396 | 19.44° C | - | - | 1.52 mm | 4.47 m/s, 42° | - | - |
| 1777608760 | 19.44° C | - | - | 1.52 mm | 3.13 m/s, 49° | - | - |
| 1777608124 | 19.44° C | - | - | 1.52 mm | 4.02 m/s, 34° | - | - |
| 1777607488 | 19.44° C | - | - | 1.52 mm | 5.36 m/s, 27° | - | - |
| 1777606853 | 19.44° C | - | - | 0 mm | 3.58 m/s, 25° | - | - |
| 1777606217 | 20° C | - | - | 0 mm | 3.13 m/s, 23° | - | - |
| 1777605581 | 20° C | - | - | 0 mm | 4.47 m/s, 10° | - | - |
| 1777604310 | 21.11° C | - | - | 0 mm | 3.13 m/s, 45° | - | - |
* Rain latest hour (hover to see other rain measurements)
** Current wind speed in m/s (hover to see current wind gust speed)